Total_Precipitation_Accumulation
1.85 2.15 2.53 2.88 3.09 3.25 3.35 3.65 3.85 3.55 3.05 2.61 2.09 1.84 1.71 1.50 1.30 1.16 1.04 1.05 0.96 1.02 1.04 0.87 1.03 0.89 0.90 0.93 0.97 1.09 1.13 1.04 1.01 1.37 1.58 1.33 1.06 1.01 0.90 0.88 1.00 1.06 1.08
1.38 1.48 1.70 2.03 2.12 2.33 2.65 3.01 3.25 3.09 2.55 2.29 2.03 1.85 1.73 1.57 1.48 1.36 1.20 1.03 0.98 0.99 0.88 1.03 0.90 0.91 1.00 1.03 1.03 1.12 1.15 1.02 0.98 1.30 1.60 1.43 1.45 1.34 0.76 0.83 0.91 0.98 1.15
1.02 1.01 1.10 1.27 1.57 2.05 2.19 2.25 2.50 2.69 2.43 2.28 2.19 2.06 1.91 1.67 1.63 1.55 1.35 1.04 0.93 0.94 0.95 0.93 0.89 1.04 0.86 1.04 1.17 1.16 1.20 1.16 1.04 1.06 1.29 1.32 1.33 1.22 1.02 0.85 0.79 0.90 1.12
0.69 0.83 0.85 0.90 1.10 1.43 1.71 1.96 2.20 2.36 2.28 2.16 1.95 1.78 1.57 1.43 1.38 1.38 1.37 1.23 1.10 0.98 0.96 0.89 0.95 1.03 0.89 1.16 0.93 0.98 1.16 1.21 1.06 0.98 0.85 0.87 1.04 1.16 1.18 1.02 0.84 0.86 0.96
0.38 0.55 0.67 0.75 0.79 0.98 1.37 1.79 2.11 2.34 2.23 1.93 1.75 1.72 1.61 1.54 1.46 1.37 1.46 1.32 1.24 1.08 0.95 0.96 1.01 0.98 0.91 1.01 1.04 1.24 1.15 1.11 1.06 1.00 0.93 0.94 0.90 0.79 0.91 1.05 1.05 1.01 0.79
0.26 0.35 0.42 0.52 0.66 0.79 1.02 1.30 1.62 1.90 1.93 1.76 1.66 1.68 1.67 1.65 1.52 1.31 1.26 1.15 1.12 1.11 1.06 1.10 1.10 1.00 0.92 0.96 1.00 1.11 1.12 1.18 1.24 1.08 0.95 0.97 0.90 0.79 0.87 0.83 0.82 0.89 0.72
0.21 0.31 0.37 0.35 0.48 0.57 0.66 0.82 1.12 1.35 1.50 1.57 1.56 1.55 1.65 1.66 1.49 1.33 1.25 1.19 1.04 0.99 1.02 1.06 1.15 1.08 1.04 1.01 1.06 1.04 1.02 1.11 1.18 1.06 0.93 0.87 0.76 0.80 0.87 0.91 0.78 0.75 0.61
0.16 0.25 0.35 0.34 0.35 0.39 0.51 0.65 0.86 1.04 1.17 1.26 1.36 1.41 1.41 1.33 1.33 1.41 1.29 1.20 1.13 1.06 1.02 1.06 1.04 1.04 1.04 1.02 1.24 1.06 0.96 1.02 1.01 0.92 1.07 1.01 0.73 0.73 0.84 0.94 1.02 0.98 0.84
0.25 0.27 0.31 0.34 0.27 0.30 0.38 0.46 0.63 0.78 0.88 1.01 1.17 1.19 1.21 1.14 1.15 1.20 1.18 1.12 1.18 1.17 1.08 1.00 0.98 1.02 1.08 1.13 1.22 1.13 1.12 1.16 1.03 0.95 1.06 1.00 0.82 0.75 0.70 0.86 1.09 1.24 1.17
0.37 0.36 0.29 0.34 0.29 0.28 0.34 0.39 0.49 0.62 0.72 0.84 0.92 0.93 1.09 1.10 1.19 1.18 1.10 1.03 1.00 1.00 1.03 1.00 0.94 1.01 1.10 1.19 1.26 1.26 1.35 1.42 1.28 1.14 1.14 1.07 0.95 0.97 0.81 0.84 1.02 1.20 1.33
0.39 0.40 0.34 0.31 0.27 0.26 0.28 0.30 0.42 0.53 0.62 0.74 0.81 0.88 0.94 0.99 1.05 1.10 1.10 1.07 1.02 1.00 1.00 1.01 1.00 1.02 1.08 1.18 1.23 1.20 1.37 1.51 1.54 1.36 1.27 1.22 1.18 1.16 1.03 1.04 1.11 1.18 1.33
0.25 0.31 0.33 0.31 0.22 0.24 0.24 0.25 0.30 0.37 0.46 0.65 0.79 0.83 0.92 0.97 0.97 1.00 1.17 1.19 1.16 1.14 1.15 1.15 1.17 1.13 1.10 1.16 1.15 1.09 1.16 1.35 1.55 1.72 1.78 1.57 1.44 1.39 1.26 1.25 1.23 1.22 1.30
0.23 0.35 0.41 0.35 0.25 0.24 0.25 0.27 0.31 0.36 0.42 0.55 0.68 0.78 0.87 0.96 1.02 1.10 1.24 1.37 1.36 1.35 1.37 1.41 1.36 1.34 1.34 1.30 1.25 1.23 1.27 1.34 1.41 1.60 1.78 1.77 1.80 1.63 1.54 1.46 1.37 1.32 1.26
0.23 0.29 0.44 0.41 0.29 0.24 0.28 0.30 0.35 0.41 0.51 0.67 0.79 0.85 1.01 1.14 1.20 1.19 1.29 1.36 1.45 1.50 1.55 1.60 1.55 1.52 1.54 1.51 1.46 1.42 1.41 1.42 1.42 1.45 1.51 1.62 1.81 1.77 1.71 1.61 1.56 1.53 1.52
0.31 0.41 0.51 0.53 0.45 0.39 0.37 0.39 0.49 0.58 0.75 0.95 1.01 1.02 1.11 1.20 1.30 1.41 1.49 1.60 1.67 1.70 1.81 1.79 1.70 1.67 1.67 1.55 1.59 1.70 1.70 1.72 1.58 1.48 1.42 1.41 1.58 1.66 1.67 1.52 1.52 1.61 1.65
0.38 0.42 0.56 0.62 0.63 0.61 0.58 0.64 0.75 0.90 1.11 1.35 1.43 1.51 1.57 1.60 1.66 1.73 1.78 1.89 1.94 1.94 1.87 1.81 1.80 1.78 1.63 1.74 1.75 1.66 1.68 1.83 1.84 1.73 1.63 1.51 1.42 1.43 1.47 1.53 1.55 1.56 1.56
0.52 0.53 0.64 0.71 0.79 0.78 0.76 0.84 0.94 1.13 1.32 1.45 1.47 1.53 1.63 1.71 1.77 1.85 1.88 1.90 1.90 1.86 1.77 1.79 1.83 1.79 1.83 1.77 1.58 1.45 1.44 1.51 1.61 1.68 1.66 1.46 1.33 1.38 1.35 1.50 1.54 1.46 1.39
0.65 0.65 0.72 0.77 0.79 0.84 0.90 0.96 1.03 1.10 1.31 1.41 1.42 1.42 1.46 1.53 1.63 1.72 1.74 1.71 1.68 1.64 1.60 1.60 1.53 1.49 1.47 1.48 1.31 1.26 1.24 1.24 1.22 1.32 1.42 1.39 1.30 1.29 1.31 1.24 1.15 1.10 1.10
0.61 0.66 0.75 0.76 0.80 0.83 0.89 0.89 0.94 1.03 1.14 1.21 1.25 1.24 1.31 1.41 1.49 1.53 1.55 1.57 1.55 1.42 1.30 1.25 1.25 1.25 1.30 1.41 1.24 1.18 1.17 1.21 1.12 1.11 1.12 1.12 1.04 1.08 1.03 0.96 0.87 0.82 0.83
0.55 0.63 0.76 0.78 0.79 0.81 0.84 0.85 0.89 0.98 1.10 1.23 1.31 1.33 1.37 1.45 1.44 1.44 1.44 1.42 1.39 1.34 1.31 1.24 1.20 1.19 1.21 1.32 1.16 1.10 1.10 1.15 1.11 1.10 1.13 1.22 1.06 0.93 0.77 0.75 0.77 0.70 0.67
0.57 0.61 0.73 0.85 0.85 0.86 0.91 0.97 0.97 1.01 1.10 1.19 1.26 1.29 1.30 1.31 1.31 1.35 1.31 1.34 1.35 1.33 1.26 1.19 1.18 1.21 1.20 1.20 1.04 0.94 0.89 0.93 0.94 0.89 0.90 1.01 1.00 0.81 0.67 0.67 0.68 0.63 0.61
0.46 0.60 0.71 0.80 0.88 0.98 1.08 1.12 1.07 1.06 1.11 1.21 1.25 1.22 1.21 1.19 1.18 1.15 1.12 1.14 1.16 1.14 1.13 1.14 1.16 1.23 1.23 1.07 0.93 0.79 0.73 0.75 0.76 0.86 0.88 0.98 1.00 0.80 0.68 0.59 0.57 0.53 0.47
0.43 0.50 0.60 0.74 0.82 0.95 1.07 1.15 1.19 1.21 1.19 1.22 1.26 1.23 1.18 1.16 1.18 1.18 1.17 1.16 1.16 1.16 1.13 1.07 1.00 1.00 1.04 1.02 0.86 0.69 0.61 0.64 0.69 0.90 1.12 1.14 1.08 0.92 0.76 0.68 0.66 0.54 0.46
0.55 0.60 0.68 0.71 0.75 0.83 0.94 1.06 1.15 1.20 1.26 1.26 1.23 1.20 1.17 1.13 1.16 1.23 1.22 1.20 1.19 1.15 1.09 1.03 0.98 0.98 1.00 0.99 0.92 0.81 0.72 0.73 0.78 0.94 1.12 1.23 1.25 1.15 0.99 0.90 0.82 0.65 0.61
0.70 0.73 0.78 0.79 0.79 0.83 0.89 1.01 1.10 1.15 1.19 1.23 1.23 1.18 1.11 1.07 1.08 1.10 1.10 1.05 1.04 1.04 1.00 0.93 0.91 0.92 0.93 0.94 0.91 0.82 0.75 0.72 0.75 0.87 1.09 1.27 1.40 1.41 1.37 1.23 1.11 0.98 0.87
0.79 0.77 0.80 0.81 0.81 0.87 0.96 0.99 1.10 1.24 1.30 1.26 1.16 1.09 0.99 0.96 0.95 0.95 0.98 1.04 0.94 0.95 0.89 0.84 0.78 0.74 0.78 0.79 0.69 0.63 0.62 0.62 0.66 0.78 1.00 1.25 1.44 1.51 1.60 1.58 1.46 1.27 1.11